North Bend, OR

9:13 PM PDT on July 23, 2017 (GMT -0700)
North Bend Municipal

Weather History for KOTH - March, 2013

Change the Weather History Date:

Saturday, March 16, 2013

  Actual Average Record
Temperature  
Mean Temperature 48 °F 48 °F  
Max Temperature 50 °F 54 °F 68 °F (1915)
Min Temperature 45 °F 42 °F 25 °F (1906)
Degree Days  
Heating Degree Days 17 17  
Month to date heating degree days 267 281  
Since 1 July heating degree days 3305 3455  
Cooling Degree Days 0 0  
Month to date cooling degree days 0 0  
Year to date cooling degree days 0 0  
Moisture  
Dew Point 47 °F    
Average Humidity 96    
Maximum Humidity 100    
Minimum Humidity 86    
Precipitation  
Precipitation 0.29 in 0.26 in 4.02 in (1938)
Month to date precipitation 1.97 4.26  
Year to date precipitation 8.74 22.04  
Sea Level Pressure  
Sea Level Pressure 30.22 in    
Wind  
Wind Speed 8 mph (WSW)    
Max Wind Speed 17 mph    
Max Gust Speed 24 mph    
Visibility 9 miles    
Events      
T = Trace of Precipitation, MM = Missing Value Source: NWS Daily Summary

Daily Weather History Graph

Daily Weather History Graph

Search for Another Location

Airport or City:

Trip Planner

Search our weather history database for the weather conditions in past years. The results will help you decide how hot, cold, wet, or windy it might be!

Date:

Astronomy

Mar. 16, 2013 Rise Set
Actual Time 7:26 AM PDT 7:24 PM PDT
Civil Twilight 6:58 AM PDT 7:53 PM PDT
Nautical Twilight 6:25 AM PDT 8:26 PM PDT
Astronomical Twilight 5:51 AM PDT 9:00 PM PDT
Moon 9:51 AM PDT (3/16) No Moon Set
Length of Visible Light 12h 55m
Length of Day
11h 58m
Waxing Crescent, 24% of the Moon is Illuminated
Mar 16
Waxing Crescent
Mar 19
First Quarter
Mar 27
Full
Apr 2
Last Quarter
Apr 10
New

Hourly Weather History & Observations

Time (PDT) Temp. Windchill Dew Point Humidity Pressure Visibility Wind Dir Wind Speed Gust Speed Precip Events Conditions
12:15 AM 48.2 °F - 48.2 °F 100% 30.25 in 10.0 mi WSW 3.5 mph - N/A   Overcast
12:35 AM 48.2 °F - 48.2 °F 100% 30.25 in 10.0 mi West 3.5 mph - N/A   Overcast
12:55 AM 48.2 °F - 48.2 °F 100% 30.26 in 10.0 mi West 3.5 mph - N/A   Overcast
1:15 AM 48.2 °F - 48.2 °F 100% 30.25 in 10.0 mi Calm Calm - N/A   Overcast
1:35 AM 48.2 °F - 48.2 °F 100% 30.26 in 10.0 mi West 3.5 mph - N/A   Overcast
1:55 AM 48.2 °F - 48.2 °F 100% 30.26 in 9.0 mi West 5.8 mph - N/A   Overcast
2:15 AM 48.2 °F - 48.2 °F 100% 30.25 in 10.0 mi Calm Calm - N/A   Overcast
2:35 AM 48.2 °F - 48.2 °F 100% 30.25 in 10.0 mi Calm Calm - N/A   Overcast
2:55 AM 48.2 °F - 48.2 °F 100% 30.26 in 10.0 mi WSW 4.6 mph - N/A   Overcast
3:15 AM 48.2 °F - 46.4 °F 93% 30.25 in 10.0 mi Calm Calm - N/A   Overcast
3:35 AM 48.2 °F - 46.4 °F 93% 30.25 in 10.0 mi Calm Calm - N/A   Overcast
3:55 AM 48.2 °F - 48.2 °F 100% 30.25 in 7.0 mi Calm Calm - N/A   Overcast
4:15 AM 48.2 °F - 48.2 °F 100% 30.25 in 7.0 mi Calm Calm - N/A   Overcast
4:35 AM 48.2 °F - 48.2 °F 100% 30.25 in 10.0 mi Calm Calm - N/A   Overcast
4:55 AM 48.2 °F - 48.2 °F 100% 30.24 in 4.0 mi WSW 4.6 mph - N/A   Overcast
5:15 AM 48.2 °F - 48.2 °F 100% 30.24 in 10.0 mi SW 3.5 mph - N/A   Overcast
5:35 AM 48.2 °F - 48.2 °F 100% 30.23 in 10.0 mi Calm Calm - N/A   Overcast
5:55 AM 48.2 °F - 48.2 °F 100% 30.21 in 9.0 mi Calm Calm - N/A   Overcast
6:15 AM 48.2 °F - 48.2 °F 100% 30.21 in 10.0 mi Calm Calm - N/A   Overcast
6:35 AM 48.2 °F - 48.2 °F 100% 30.21 in 10.0 mi Calm Calm - N/A   Overcast
6:55 AM 48.2 °F - 48.2 °F 100% 30.22 in 10.0 mi Calm Calm - N/A   Overcast
7:15 AM 48.2 °F - 48.2 °F 100% 30.23 in 10.0 mi SW 4.6 mph - N/A   Overcast
7:35 AM 48.2 °F - 48.2 °F 100% 30.23 in 8.0 mi Calm Calm - N/A   Overcast
7:55 AM 48.2 °F - 48.2 °F 100% 30.23 in 10.0 mi Calm Calm - N/A   Overcast
8:15 AM 48.2 °F - 48.2 °F 100% 30.23 in 10.0 mi SSW 3.5 mph - N/A   Overcast
8:35 AM 48.2 °F - 48.2 °F 100% 30.23 in 10.0 mi SW 4.6 mph - N/A   Overcast
8:55 AM 48.2 °F - 48.2 °F 100% 30.23 in 3.0 mi SW 4.6 mph - N/A   Overcast
9:15 AM 48.2 °F - 46.4 °F 93% 30.23 in 10.0 mi SW 8.1 mph - N/A   Mostly Cloudy
9:35 AM 48.2 °F - 46.4 °F 93% 30.23 in 5.0 mi SW 5.8 mph - N/A   Overcast
9:55 AM 48.2 °F - 46.4 °F 93% 30.23 in 10.0 mi South 5.8 mph - N/A   Overcast
10:15 AM 50.0 °F - 48.2 °F 94% 30.23 in 10.0 mi SSE 5.8 mph - N/A   Overcast
10:35 AM 50.0 °F - 48.2 °F 94% 30.23 in 10.0 mi South 5.8 mph - N/A   Overcast
10:55 AM 50.0 °F - 48.2 °F 94% 30.23 in 10.0 mi SE 4.6 mph - N/A   Overcast
11:15 AM 50.0 °F - 48.2 °F 94% 30.22 in 10.0 mi SSE 8.1 mph - N/A   Overcast
11:35 AM 50.0 °F - 48.2 °F 94% 30.23 in 10.0 mi South 5.8 mph - N/A   Overcast
11:55 AM 50.0 °F - 48.2 °F 94% 30.23 in 10.0 mi SSW 8.1 mph - 0.01 in   Overcast
12:15 PM 50.0 °F - 48.2 °F 94% 30.23 in 10.0 mi SSW 9.2 mph - 0.01 in   Overcast
12:35 PM 50.0 °F - 48.2 °F 94% 30.22 in 10.0 mi SSW 5.8 mph - 0.01 in   Overcast
12:55 PM 50.0 °F - 46.4 °F 87% 30.22 in 10.0 mi SSW 6.9 mph - 0.02 in   Overcast
1:15 PM 50.0 °F - 48.2 °F 94% 30.22 in 10.0 mi SSW 6.9 mph - 0.01 in   Overcast
1:35 PM 50.0 °F - 48.2 °F 94% 30.21 in 10.0 mi SSW 9.2 mph - 0.03 in   Overcast
1:55 PM 50.0 °F - 48.2 °F 94% 30.21 in 10.0 mi South 8.1 mph 16.1 mph 0.04 in   Overcast
2:15 PM 50.0 °F - 48.2 °F 94% 30.20 in 10.0 mi South 9.2 mph - N/A   Overcast
2:35 PM 50.0 °F - 46.4 °F 87% 30.19 in 10.0 mi SSW 6.9 mph 16.1 mph N/A   Overcast
2:55 PM 50.0 °F - 46.4 °F 87% 30.19 in 5.0 mi SW 11.5 mph 19.6 mph N/A   Overcast
3:15 PM 48.2 °F - 48.2 °F 100% 30.19 in 1.5 mi SSW 8.1 mph - N/A   Overcast
3:35 PM 48.2 °F - 46.4 °F 93% 30.19 in 4.0 mi SW 9.2 mph - 0.04 in   Overcast
3:55 PM 48.2 °F - 46.4 °F 93% 30.18 in 3.0 mi WSW 12.7 mph 18.4 mph 0.08 in   Overcast
4:15 PM 50.0 °F - 48.2 °F 94% 30.18 in 8.0 mi SW 15.0 mph 21.9 mph 0.01 in   Overcast
4:35 PM 50.0 °F - 48.2 °F 94% 30.18 in 10.0 mi WSW 13.8 mph 20.7 mph 0.01 in   Overcast
4:55 PM 50.0 °F - 48.2 °F 94% 30.18 in 10.0 mi WSW 13.8 mph - 0.01 in   Overcast
5:15 PM 50.0 °F - 48.2 °F 94% 30.18 in 10.0 mi WSW 13.8 mph - N/A   Overcast
5:35 PM 50.0 °F - 48.2 °F 94% 30.17 in 6.0 mi WSW 13.8 mph 17.3 mph N/A   Overcast
5:55 PM 50.0 °F - 48.2 °F 94% 30.18 in 10.0 mi West 17.3 mph 24.2 mph N/A   Overcast
6:15 PM 50.0 °F - 48.2 °F 94% 30.17 in 10.0 mi West 13.8 mph - N/A   Overcast
6:35 PM 50.0 °F - 48.2 °F 94% 30.17 in 10.0 mi WSW 12.7 mph - N/A   Overcast
6:55 PM 48.2 °F - 46.4 °F 93% 30.17 in 4.0 mi West 17.3 mph - 0.01 in   Overcast
7:15 PM 48.2 °F - 48.2 °F 100% 30.17 in 7.0 mi WSW 10.4 mph - 0.02 in   Overcast
7:35 PM 48.2 °F - 48.2 °F 100% 30.17 in 5.0 mi West 15.0 mph 23.0 mph 0.06 in   Overcast
7:55 PM 48.2 °F - 46.4 °F 93% 30.19 in 7.0 mi WNW 16.1 mph 20.7 mph 0.08 in   Overcast
8:15 PM 48.2 °F - 46.4 °F 93% 30.19 in 10.0 mi West 12.7 mph - 0.03 in   Overcast
8:35 PM 46.4 °F 40.4 °F 46.4 °F 100% 30.20 in 10.0 mi West 13.8 mph - 0.03 in   Mostly Cloudy
8:55 PM 48.2 °F - 46.4 °F 93% 30.21 in 10.0 mi WNW 15.0 mph - 0.03 in   Overcast
9:15 PM 46.4 °F 41.5 °F 46.4 °F 100% 30.22 in 10.0 mi NW 10.4 mph - 0.01 in   Overcast
9:35 PM 46.4 °F 40.7 °F 44.6 °F 93% 30.23 in 10.0 mi NNW 12.7 mph - 0.01 in   Mostly Cloudy
9:55 PM 46.4 °F 40.4 °F 44.6 °F 93% 30.24 in 10.0 mi NNW 13.8 mph 18.4 mph 0.01 in   Overcast
10:15 PM 46.4 °F 40.4 °F 42.8 °F 87% 30.24 in 10.0 mi NNW 13.8 mph - N/A   Overcast
10:35 PM 44.6 °F 38.1 °F 44.6 °F 100% 30.26 in 10.0 mi NNW 13.8 mph 23.0 mph N/A   Overcast
10:55 PM 44.6 °F 39.7 °F 42.8 °F 93% 30.26 in 10.0 mi NNW 9.2 mph - N/A   Mostly Cloudy
11:15 PM 44.6 °F 40.2 °F 42.8 °F 93% 30.26 in 10.0 mi NW 8.1 mph - N/A   Overcast
11:35 PM 46.4 °F 41.5 °F 42.8 °F 87% 30.27 in 10.0 mi NW 10.4 mph - N/A   Overcast
11:55 PM 44.6 °F 38.8 °F 42.8 °F 93% 30.27 in 10.0 mi NNW 11.5 mph 17.3 mph N/A   Overcast